Weather History for Kendall, FL

Change the Weather History Date:

Monday, December 17, 2012

  Actual Average Record
Temperature  
Mean Temperature 72 °F -  
Max Temperature 82 °F 75 °F 82 °F (2000)
Min Temperature 62 °F 53 °F 43 °F (2002)
Cooling Degree Days 7    
Growing Degree Days 22 (Base 50)    
Moisture  
Dew Point 65 °F    
Average Humidity 84    
Maximum Humidity 100    
Minimum Humidity 56    
Precipitation  
Precipitation 0.01 in - - ()
Sea Level Pressure  
Sea Level Pressure 29.97 in    
Wind  
Wind Speed 2 mph (SSW)    
Max Wind Speed 14 mph    
Max Gust Speed 20 mph    
Visibility 8 miles    
Events      
Averages and records for this station are not official NWS values.
T = Trace of Precipitation, MM = Missing Value Source: NWS Daily Summary

Daily Weather History Graph

Daily Weather History Graph

Search for Another Location

Airport:

Trip Planner

Search our weather history database for the weather conditions in past years. The results will help you decide how hot, cold, wet, or windy it might be!

Date:

Astronomy

Dec. 17, 2012 Rise Set
Actual Time 7:01 AM EST 5:34 PM EST
Civil Twilight 6:36 AM EST 5:59 PM EST
Nautical Twilight 6:08 AM EST 6:28 PM EST
Astronomical Twilight 5:39 AM EST 6:56 PM EST
Moon 10:33 AM EST (12/17) 10:27 PM EST (12/17)
Length of Visible Light 11h 22m
Length of Day
10h 32m
Waxing Crescent, 24% of the Moon is Illuminated
Dec 17
Waxing Crescent
Dec 20
First Quarter
Dec 28
Full
Jan 4
Last Quarter
Jan 11
New

Hourly Weather History & Observations

Time (EST) Temp. Heat Index Dew Point Humidity Pressure Visibility Wind Dir Wind Speed Gust Speed Precip Events Conditions
12:12 AM 64.4 °F - 62.6 °F 94% 29.99 in 1.8 mi Calm Calm - N/A   Clear
12:20 AM 64.4 °F - 62.6 °F 94% 29.99 in 3.0 mi Calm Calm - N/A   Clear
12:53 AM 64.0 °F - 63.0 °F 96% 29.98 in 2.0 mi Calm Calm - N/A   Clear
1:13 AM 62.6 °F - 60.8 °F 94% 29.99 in 10.0 mi Calm Calm - N/A   Clear
1:42 AM 62.6 °F - 62.6 °F 100% 29.99 in 1.8 mi Calm Calm - N/A   Clear
1:53 AM 63.0 °F - 62.1 °F 97% 29.99 in 1.0 mi Calm Calm - N/A   Clear
2:02 AM 62.6 °F - 62.6 °F 100% 29.99 in 4.0 mi Calm Calm - N/A   Clear
2:53 AM 64.0 °F - 63.0 °F 96% 29.99 in 7.0 mi Calm Calm - N/A   Clear
3:53 AM 64.4 °F - 64.4 °F 100% 29.97 in 10.0 mi Calm Calm - N/A   Clear
4:53 AM 63.0 °F - 62.1 °F 97% 29.97 in 10.0 mi Calm Calm - N/A   Clear
5:53 AM 64.0 °F - 63.0 °F 96% 29.97 in 10.0 mi East 3.5 mph - N/A   Clear
6:53 AM 64.0 °F - 63.0 °F 96% 29.98 in 10.0 mi Calm Calm - 0.01 in   Clear
7:53 AM 66.0 °F - 64.9 °F 96% 29.97 in 10.0 mi Calm Calm - N/A   Clear
8:53 AM 73.0 °F - 66.9 °F 81% 29.99 in 10.0 mi Calm Calm - N/A   Clear
9:53 AM 77.0 °F - 66.9 °F 71% 29.99 in 10.0 mi Variable 6.9 mph - N/A   Clear
10:53 AM 80.1 °F 82.7 °F 68.0 °F 67% 29.98 in 10.0 mi South 8.1 mph - N/A   Partly Cloudy
11:53 AM 81.0 °F 83.0 °F 66.0 °F 60% 29.97 in 10.0 mi South 5.8 mph - N/A   Overcast
12:53 PM 82.0 °F 84.1 °F 66.0 °F 58% 29.94 in 10.0 mi SSW 12.7 mph - N/A   Overcast
1:53 PM 82.9 °F 85.0 °F 66.0 °F 56% 29.91 in 10.0 mi SW 11.5 mph 17.3 mph N/A   Mostly Cloudy
2:53 PM 82.0 °F 84.1 °F 66.0 °F 58% 29.91 in 10.0 mi SW 13.8 mph 19.6 mph N/A   Partly Cloudy
3:53 PM 82.0 °F 83.8 °F 64.9 °F 56% 29.92 in 10.0 mi SW 11.5 mph - N/A   Partly Cloudy
4:53 PM 80.1 °F 82.1 °F 66.0 °F 62% 29.93 in 10.0 mi SW 9.2 mph - N/A   Scattered Clouds
7:53 PM 75.0 °F - 69.1 °F 82% 29.97 in 10.0 mi SW 4.6 mph - N/A   Overcast
8:53 PM 73.9 °F - 69.1 °F 85% 29.98 in 10.0 mi SW 3.5 mph - N/A   Scattered Clouds
9:53 PM 69.1 °F - 66.0 °F 90% 29.98 in 10.0 mi Calm Calm - N/A   Clear
10:53 PM 68.0 °F - 66.9 °F 96% 29.99 in 10.0 mi Calm Calm - N/A   Clear
11:53 PM 66.0 °F - 64.9 °F 96% 29.98 in 10.0 mi Calm Calm - N/A   Clear